Location: Hannover
(52.3723°N, 9.7339°E)
Time: 10:08:01
(UTC+01:00)

ISS - Pass Details

Date: 10 January 2018
Orbit: 402 x 407 km, 51.6° (Epoch: 21 January)

Event Time Altitude Azimuth Distance (km) Brightness Sun altitude
Exits shadow 04:58:26 12° 95° (E) 1,349 -0.4 -30.9°
Drops below altitude 10° 04:58:44 10° 95° (E) 1,468 -0.1 -30.8°
Sets 05:00:49 0° 94° (E) 2,330 1.2 -30.5°
